Flag for Finland Weather past 2 weeks in Helsinki, Finland

Now
68 °F

Passing clouds.


Feels Like: 68 °F
Forecast: 62 / 78 °F
Wind: 6 mph from Southwest

Location: Helsinki Malmi Airport

Current Time: Aug 2, 2014 at 8:21:43 AM

Latest Report: Aug 2, 2014 at 7:50 AM


Visibility: N/A

Pressure: 30.07 "Hg

Humidity: 88%

Dew point: 64 °F

Location of HelsinkiLocation

Historic Weather in Helsinki — Graph

°F

Helsinki temperature yesterday

Maximum temperature yesterday: 77 °F (at 1:50 PM)
Minimum temperature yesterday: 57 °F (at 3:50 AM)
Average temperature yesterday: 70 °F

Past Weeks' High & Low Weather Summary

 TemperatureHumidityPressure
High86 °F (Jul 28, 4:50 PM)100% (Jul 18, 6:20 AM)30.24 "Hg (Jul 18, 6:20 AM)
Low54 °F (Jul 21, 4:50 AM)33% (Jul 28, 5:07 PM)29.62 "Hg (Jul 31, 1:50 PM)
Average71 °F71%30.02 "Hg
* Reported Jul 18 6:20 AM — Aug 2 6:50 AM, Helsinki, Weather by CustomWeather, © 2014

Note: Actual official high and low records may vary slightly from our data, if they occured in-between our weather recording intervals... More about our weather records

Advertising

Helsinki weather history for previous 24 hours

 ConditionsComfort  
Time TempWeatherWind HumidityBarometerVisibility
6:50 AM
Aug 2
66 °FSunny.3 mph94%30.07 "Hg10 mi
6:20 AM66 °FPassing clouds.5 mph94%30.07 "HgN/A
5:50 AM66 °FClear.3 mph88%30.07 "Hg10 mi
5:20 AM64 °FClear.3 mph94%30.07 "Hg10 mi
4:50 AM66 °FClear.5 mph88%30.04 "Hg10 mi
4:20 AM64 °FPassing clouds.6 mph94%30.04 "HgN/A
3:50 AM59 °FClear.2 mph100%30.04 "Hg10 mi
3:20 AM59 °FClear.1 mph94%30.04 "Hg10 mi
2:50 AM59 °FClear.1 mph94%30.04 "Hg10 mi
2:20 AM61 °FClear.No wind88%30.04 "Hg10 mi
1:50 AM63 °FClear.1 mph83%30.04 "Hg10 mi
1:20 AM64 °FClear.2 mph83%30.01 "Hg10 mi
12:50 AM66 °FClear.3 mph73%30.01 "Hg10 mi
12:20 AM66 °FClear.5 mph73%30.01 "Hg10 mi
11:50 PM
Aug 1
66 °FPassing clouds.5 mph73%30.01 "HgN/A
11:20 PM66 °FClear.5 mph73%30.01 "Hg10 mi
10:50 PM66 °FPassing clouds.5 mph73%29.98 "HgN/A
10:20 PM68 °FSunny.2 mph73%29.98 "Hg10 mi
9:50 PM70 °FPassing clouds.5 mph60%29.95 "HgN/A
9:20 PM70 °FPassing clouds.6 mph64%29.95 "HgN/A
8:50 PM72 °FPassing clouds.7 mph57%29.95 "HgN/A
8:20 PM73 °FPassing clouds.9 mph50%29.95 "HgN/A
7:50 PM73 °FPassing clouds.8 mph47%29.92 "HgN/A
7:20 PM73 °FPassing clouds.9 mph57%29.92 "HgN/A
6:50 PM75 °FPassing clouds.12 mph57%29.92 "HgN/A
6:20 PM75 °FPassing clouds.10 mph47%29.92 "HgN/A
5:50 PM75 °FPassing clouds.9 mph44%29.92 "HgN/A
5:20 PM75 °FPassing clouds.13 mph44%29.89 "HgN/A
4:50 PM75 °FPassing clouds.13 mph50%29.89 "HgN/A
4:20 PM75 °FScattered clouds.10 mph47%29.89 "HgN/A
3:50 PM75 °FPassing clouds.13 mph47%29.89 "HgN/A
3:20 PM75 °FPassing clouds.15 mph47%29.89 "HgN/A
2:50 PM75 °FPassing clouds.13 mph54%29.89 "HgN/A
2:20 PM77 °FPassing clouds.15 mph51%29.89 "HgN/A
1:50 PM77 °FScattered clouds.16 mph47%29.89 "HgN/A
1:20 PM75 °FScattered clouds.17 mph54%29.86 "HgN/A
12:50 PM75 °FScattered clouds.17 mph54%29.86 "HgN/A
12:20 PM75 °FScattered clouds.16 mph54%29.86 "HgN/A
11:50 AM75 °FScattered clouds.14 mph54%29.86 "HgN/A
11:20 AM75 °FScattered clouds.13 mph74%29.83 "HgN/A
10:50 AM73 °FScattered clouds.10 mph74%29.83 "HgN/A
10:20 AM70 °FScattered clouds.12 mph88%29.83 "HgN/A
9:50 AM72 °FScattered clouds.12 mph83%29.83 "HgN/A
9:20 AM72 °FScattered clouds.9 mph83%29.83 "HgN/A
8:50 AM72 °FScattered clouds.8 mph83%29.83 "HgN/A
8:20 AM70 °FScattered clouds.8 mph88%29.83 "HgN/A
Weather by CustomWeather, © 2014

See weather overviewHow to use our weather pages